[[{"header":{"parameterUnit":"m.s-1","parameterCategory":2,"la1":30.2991,"la2":30.254,"lo1":-89.0895,"lo2":-89.0444,"dy":0.0017,"dx":0.0017,"nx":28,"ny":28,"refTime":"2023-08-03T03:00:00:Z","depth":"0","parameterNumber":2,"parameterNumberName":"U-component_of_CURRENTS"},"data":[0,0,0,0,0,0,0,0,0,0,0,0,0,0,0,0,0,0,0,0,0,0,0,0,0,0,0,0,0,0,0,0,0,0,0,0,0,0,0,0,0,0,0,0,0,0,0,0,0,0,0,0,0,0,0,0,0,0,0.0965,0.0965,0,0.1005,0.1006,0.1006,0.1026,0.1026,0.1026,0.1026,0.1046,0.1047,0.1047,0,0,0,0,0,0,0,0,0,0,0,0,0,0.0932,0.0933,0.0965,0.0965,0.0966,0.1005,0.1006,0.1007,0.1026,0.1026,0.1026,0.1026,0.1046,0.1047,0.1048,0,0,0,0,0,0,0,0,0,0,0,0,0,0.0958,0.0933,0.0965,0.098,0.0981,0.1005,0.1006,0.1007,0.1026,0.1026,0.1026,0.1026,0.1046,0.1047,0.1048,0.1056,0,0,0.105,0.1051,0,0,0,0,0,0,0,0,0.0956,0.0959,0.0977,0.0979,0.0981,0.101,0.1002,0.1022,0.1026,0.101,0.1026,0.1026,0.1032,0.1034,0.1043,0.1057,0.1057,0.1051,0.1051,0.1051,0.1052,0,0,0,0,0,0,0,0.0954,0.0957,0.0982,0.0978,0.098,0.0994,0.0997,0.1006,0.1021,0.1011,0.1013,0.1016,0.1033,0.1042,0.1044,0.1058,0.1051,0.1051,0.1052,0.1052,0.1205,0.1208,0,0,0,0,0,0,0.0947,0.0956,0.098,0.0983,0.0967,0.0994,0.0998,0.1001,0.1022,0.1025,0.1016,0.1017,0.1041,0.1043,0.1044,0.1146,0.1051,0.1052,0.1053,0.1202,0.1206,0.121,0,0,0,0,0,0,0.0946,0.0948,0.0979,0.097,0.0974,0.0995,0.0998,0.1002,0.1013,0.1025,0.1028,0.1023,0.1041,0.1043,0.1077,0.1143,0.1053,0.1054,0.1197,0.1203,0.1208,0.129,0,0,0,0,0,0,0.0945,0.0948,0.095,0.0969,0.0975,0.1003,0.0999,0.1003,0.1015,0.1016,0.1032,0.1034,0.1041,0.1076,0.1078,0.1143,0.1054,0.1193,0.12,0.1206,0.1283,0.1298,0.131,0,0,0,0,0,0.0943,0.0954,0.095,0.0953,0.0976,0.1003,0.1008,0.1022,0.1015,0.103,0.105,0.1034,0.1121,0.1079,0.1081,0.1147,0.119,0.1198,0.1206,0.1277,0.1295,0.131,0,0,0,0,0,0,0.0942,0.0957,0.0954,0.0967,0.0985,0.1006,0.1022,0.1022,0.1048,0.1051,0.1055,0.106,0.1127,0.1122,0.1076,0.1217,0.1162,0.1171,0.1216,0.1233,0.1246,0.1288,0.1055,0,0,0,0,0,0.0941,0.0955,0.0967,0.0981,0.0988,0.1002,0.1013,0.1021,0.1044,0.1054,0.1067,0.1102,0.1162,0.118,0.1218,0.1269,0.1369,0.1324,0.1338,0.1349,0.1389,0.1623,0.1663,0.1235,0.1235,0.1235,0,0,0.0946,0.0955,0.0964,0.0982,0.0996,0.1023,0.1009,0.1033,0.107,0.1052,0.1107,0.114,0.1187,0.1267,0.1298,0.1268,0.1521,0.1359,0.1368,0.1402,0.1636,0.1678,0.1716,0.1241,0.124,0.1239,0,0,0.0981,0.097,0.1002,0.101,0.1031,0.104,0.1045,0.1067,0.1095,0.1137,0.117,0.1252,0.128,0.1372,0.1412,0.1523,0.1586,0.1522,0.162,0.1847,0.1885,0.192,0.2092,0.2142,0.1527,0.1528,0.1528,0,0.099,0.1021,0.1016,0.1044,0.1057,0.1048,0.1084,0.1114,0.1148,0.1212,0.1163,0.1345,0.1353,0.154,0.1572,0.1559,0.1678,0.1545,0.1869,0.1905,0.1939,0.2108,0.2162,0.1533,0.1532,0.1532,0.1531,0,0.1052,0.1067,0.1085,0.1116,0.113,0.1155,0.1182,0.1228,0.1241,0.129,0.1449,0.1497,0.1631,0.1639,0.1622,0.1881,0.1884,0.186,0.1827,0.1988,0.2154,0.2209,0.154,0.1538,0.1536,0.1535,0,0,0.1115,0.1127,0.1136,0.1169,0.1165,0.1206,0.1266,0.1363,0.1484,0.1511,0.1697,0.1779,0.1838,0.1894,0.1927,0.2084,0.239,0.2066,0.2075,0.2238,0.2887,0.2807,0.2857,0.2432,0.2443,0.2451,0.2903,0,0.1174,0.1241,0.1221,0.1294,0.1336,0.1336,0.1415,0.1501,0.1584,0.1759,0.1858,0.2027,0.193,0.2035,0.2182,0.235,0.254,0.2269,0.2708,0.2721,0.2632,0.2921,0.2839,0.3229,0.2956,0.2965,0.2972,0,0.1268,0.1294,0.1369,0.1429,0.1451,0.1484,0.1652,0.1723,0.1931,0.2016,0.2193,0.2281,0.2524,0.2418,0.2817,0.2653,0.2795,0.2895,0.2915,0.2857,0.2744,0.3029,0.3338,0.3219,0.3056,0.3049,0.3043,0,0.1387,0.1417,0.1488,0.1496,0.1554,0.1611,0.1649,0.1816,0.1964,0.2218,0.2381,0.2628,0.281,0.3026,0.3161,0.3056,0.3589,0.3483,0.3558,0.3551,0.3578,0.3556,0.383,0.3836,0.3835,0.3834,0.3832,0,0.149,0.1553,0.1547,0.1596,0.1733,0.1706,0.1919,0.2007,0.2209,0.2425,0.2538,0.2772,0.298,0.325,0.3345,0.3626,0.3765,0.3672,0.3712,0.3596,0.3571,0.3536,0.348,0.385,0.3847,0.3843,0.384,0,0.1665,0.1628,0.175,0.1791,0.1807,0.1924,0.2059,0.2223,0.2364,0.2662,0.2759,0.301,0.3318,0.3505,0.388,0.3889,0.4066,0.4195,0.3999,0.4006,0.3886,0.3836,0.4037,0.397,0.4406,0.4408,0.4409,0,0.1787,0.1859,0.1946,0.1996,0.2011,0.2139,0.2236,0.2335,0.248,0.2788,0.2934,0.3284,0.3472,0.3949,0.4109,0.4368,0.4195,0.4407,0.4181,0.3963,0.3942,0.3691,0.36,0.4267,0.4266,0.4266,0.4266,0,0.2036,0.2061,0.2128,0.2227,0.2301,0.2418,0.2504,0.2623,0.2743,0.2928,0.3117,0.327,0.3706,0.3902,0.422,0.4348,0.4207,0.4408,0.4311,0.3995,0.3632,0.3553,0.3824,0.4266,0.4266,0.4266,0.4266,0.4266,0.2235,0.2318,0.2354,0.2452,0.2516,0.2552,0.2603,0.2674,0.2811,0.2945,0.3136,0.3295,0.3674,0.4082,0.419,0.432,0.4238,0.423,0.4241,0.4039,0.382,0.4037,0.4404,0.4405,0.4406,0.4406,0.4407,0,0.2403,0.242,0.2544,0.2564,0.26,0.2614,0.2677,0.2664,0.2689,0.2886,0.2986,0.3331,0.3597,0.3893,0.4205,0.4153,0.397,0.4081,0.3755,0.3716,0.4084,0.391,0.4031,0.4031,0.4031,0.4031,0.4031,0.4031,0.2464,0.2539,0.2556,0.2577,0.258,0.2531,0.2513,0.2502,0.2573,0.2683,0.2842,0.3038,0.3469,0.3967,0.4091,0.4035,0.3745,0.3619,0.3587,0.3857,0.3868,0.3878,0.3699,0.3774,0.3774,0.3052,0.3047,0.3044]},{"header":{"parameterUnit":"m.s-1","parameterCategory":2,"la1":30.2991,"la2":30.254,"lo1":-89.0895,"lo2":-89.0444,"dy":0.0017,"dx":0.0017,"nx":28,"ny":28,"refTime":"2023-08-03T03:00:00:Z","depth":"0","parameterNumber":3,"parameterNumberName":"V-component_of_CURRENTS"},"data":[0,0,0,0,0,0,0,0,0,0,0,0,0,0,0,0,0,0,0,0,0,0,0,0,0,0,0,0,0,0,0,0,0,0,0,0,0,0,0,0,0,0,0,0,0,0,0,0,0,0,0,0,0,0,0,0,0,0,-0.0007,-0.0006,0,0.0042,0.0042,0.0043,0.0081,0.0081,0.0081,0.0082,0.0072,0.0071,0.007,0,0,0,0,0,0,0,0,0,0,0,0,0,-0.0029,-0.0029,-0.0007,-0.0006,-0.0006,0.0042,0.0042,0.0043,0.0081,0.0081,0.0082,0.0082,0.0072,0.0071,0.007,0,0,0,0,0,0,0,0,0,0,0,0,0,-0.0004,-0.0029,-0.0007,0.0019,0.0022,0.0042,0.0042,0.0043,0.008,0.0081,0.0082,0.0082,0.0072,0.0071,0.007,0.0052,0,0,0.0067,0.0067,0,0,0,0,0,0,0,0,-0.0006,-0.0003,0.0015,0.0017,0.0021,0.0056,0.0031,0.0043,0.008,0.0058,0.0082,0.0082,0.0061,0.0061,0.0069,0.0052,0.0051,0.0067,0.0067,0.0066,0.0066,0,0,0,0,0,0,0,-0.0007,-0.0005,0.0012,0.0015,0.0019,0.0042,0.0046,0.0034,0.0054,0.006,0.0063,0.0069,0.0062,0.007,0.0069,0.0051,0.0067,0.0066,0.0066,0.0065,0.0049,0.0049,0,0,0,0,0,0,-0.0015,-0.0007,0.001,0.0013,0.0009,0.0042,0.0046,0.0044,0.0055,0.0058,0.0068,0.007,0.0071,0.007,0.0068,0.0101,0.0066,0.0065,0.0065,0.0048,0.0049,0.0049,0,0,0,0,0,0,-0.0016,-0.0015,0.0008,0.0005,0.001,0.0041,0.0039,0.0044,0.0049,0.0062,0.0064,0.0066,0.0072,0.007,0.0047,0.0099,0.0065,0.0064,0.0048,0.0048,0.0049,0.0131,0,0,0,0,0,0,-0.0017,-0.0015,-0.0022,0.0004,0.001,0.0005,0.0038,0.0045,0.0052,0.0055,0.0061,0.0061,0.0072,0.0048,0.0046,0.0097,0.0063,0.0048,0.0048,0.0049,0.0129,0.0134,0.0139,0,0,0,0,0,-0.0018,-0.0028,-0.0023,-0.002,0.0,0.0004,0.0008,0.0033,0.0051,0.0041,0.0048,0.0061,0.005,0.0046,0.0044,0.0096,0.0048,0.0048,0.0049,0.0126,0.0133,0.0139,0,0,0,0,0,0,-0.0039,-0.0024,-0.0018,-0.0023,-0.0018,0.001,0.0009,0.0025,0.0025,0.0027,0.0044,0.0043,0.0049,0.004,0.0036,0.0088,0.0059,0.0058,0.0119,0.0125,0.013,0.0232,0.0062,0,0,0,0,0,-0.0048,-0.0053,-0.0039,-0.0044,-0.0044,-0.0021,-0.0015,-0.0003,0.0005,0.0007,0.0014,0.0025,0.0049,0.0057,0.0054,0.0067,0.0102,0.0102,0.0107,0.0112,0.019,0.0262,0.0283,0.005,0.005,0.005,0,0,-0.0057,-0.005,-0.0051,-0.0049,-0.0041,-0.0035,-0.0017,-0.0018,0.0015,0.0002,0.0028,0.0027,0.0048,0.0076,0.0082,0.0079,0.0181,0.0112,0.0117,0.0194,0.0265,0.0289,0.031,0.005,0.005,0.005,0,0,-0.0069,-0.0074,-0.0078,-0.0081,-0.0076,-0.0057,-0.0061,-0.0047,-0.0012,-0.0011,0.002,0.0065,0.0039,0.0125,0.0155,0.0185,0.0195,0.0151,0.0285,0.0351,0.0373,0.0393,0.0413,0.0435,0.0171,0.0171,0.0171,0,-0.0074,-0.0075,-0.0081,-0.0087,-0.0059,-0.0067,-0.0044,-0.0026,-0.0016,0.007,-0.0006,0.0114,0.0097,0.0263,0.0266,0.0214,0.022,0.0261,0.0366,0.0387,0.0406,0.0422,0.0445,0.0175,0.0175,0.0174,0.0174,0,-0.0086,-0.0088,-0.0094,-0.0088,-0.0066,-0.0062,-0.0024,0.0018,0.0044,0.0099,0.0226,0.0221,0.0339,0.031,0.029,0.0451,0.0396,0.0352,0.0364,0.0436,0.0445,0.0468,0.0181,0.018,0.0178,0.0177,0,0,-0.0062,-0.0091,-0.0089,-0.0033,-0.0054,0.0006,0.0055,0.0179,0.0338,0.03,0.0518,0.052,0.0571,0.0611,0.0614,0.0658,0.0744,0.0563,0.0564,0.0612,0.0856,0.0816,0.0835,0.0703,0.0709,0.0713,0.0789,0,-0.005,-0.0027,-0.0048,0.0032,0.0079,0.0118,0.0217,0.033,0.042,0.0605,0.0664,0.0817,0.0671,0.0771,0.0787,0.078,0.0815,0.0727,0.0759,0.0761,0.0742,0.0866,0.0809,0.0874,0.0811,0.0814,0.0817,0,-0.0024,0.0006,0.0067,0.0216,0.0251,0.0299,0.0577,0.0655,0.0873,0.0968,0.1111,0.1152,0.1277,0.1115,0.115,0.1088,0.1,0.0943,0.0943,0.0922,0.0768,0.08,0.0917,0.0597,0.0851,0.0849,0.0846,0,0.0103,0.0132,0.0219,0.0238,0.0356,0.0474,0.0571,0.0787,0.0984,0.123,0.141,0.1503,0.1626,0.1519,0.1372,0.1276,0.1372,0.1229,0.1117,0.1109,0.1088,0.1071,0.0945,0.1279,0.1279,0.1279,0.1279,0,0.0184,0.0282,0.0293,0.0359,0.0592,0.0616,0.0926,0.1061,0.1314,0.1594,0.1619,0.1858,0.1731,0.1753,0.1527,0.1415,0.1497,0.1213,0.1169,0.1101,0.1086,0.0826,0.0678,0.1281,0.1281,0.128,0.128,0,0.0385,0.0322,0.0493,0.0607,0.0655,0.086,0.113,0.1377,0.1551,0.1918,0.2017,0.2189,0.2197,0.2031,0.1915,0.1679,0.1379,0.1462,0.1372,0.1317,0.087,0.073,0.0733,0.0588,0.1362,0.1362,0.1363,0,0.0526,0.0594,0.0722,0.0827,0.0889,0.1134,0.1321,0.151,0.1751,0.2116,0.2312,0.246,0.2577,0.2391,0.2028,0.171,0.143,0.1451,0.1276,0.0914,0.0725,0.0649,0.0519,0.1241,0.1241,0.124,0.1239,0,0.086,0.0864,0.0982,0.113,0.13,0.1543,0.1775,0.1978,0.2214,0.247,0.2748,0.2857,0.2733,0.2439,0.2053,0.1789,0.1231,0.1426,0.1103,0.071,0.0579,0.0392,0.1071,0.1233,0.1234,0.1234,0.1234,0.1235,0.1154,0.1264,0.1312,0.1482,0.166,0.1862,0.206,0.2272,0.2574,0.2874,0.2977,0.3112,0.2721,0.219,0.1847,0.113,0.1173,0.0845,0.0731,0.0706,0.0514,0.117,0.1242,0.1243,0.1243,0.1244,0.1244,0,0.1441,0.1459,0.1648,0.1783,0.1983,0.2014,0.2308,0.2461,0.2715,0.2972,0.3148,0.3002,0.2416,0.1848,0.095,0.0487,0.0305,0.0215,0.0046,-0.004,0.0582,0.0513,0.0368,0.0368,0.0368,0.0368,0.0369,0.0369,0.1577,0.1699,0.1707,0.1986,0.2103,0.2334,0.247,0.2663,0.2848,0.3068,0.3136,0.3222,0.2742,0.1149,0.0014,-0.0222,-0.0595,-0.0589,-0.0775,-0.0458,-0.0412,-0.0367,-0.0473,-0.0821,-0.0823,-0.1389,-0.1396,-0.14]}],[{"header":{"parameterUnit":"m.s-1","parameterCategory":2,"la1":30.2991,"la2":30.254,"lo1":-89.0895,"lo2":-89.0444,"dy":0.0017,"dx":0.0017,"nx":28,"ny":28,"refTime":"2023-08-03T03:00:00:Z","depth":"2","parameterNumber":2,"parameterNumberName":"U-component_of_CURRENTS"},"data":[0,0,0,0,0,0,0,0,0,0,0,0,0,0,0,0,0,0,0,0,0,0,0,0,0,0,0,0,0,0,0,0,0,0,0,0,0,0,0,0,0,0,0,0,0,0,0,0,0,0,0,0,0,0,0,0,0,0,0.0803,0.0803,0,0.0795,0.0795,0.0795,0.0792,0.0793,0.0793,0.0793,0.0803,0.0803,0.0803,0,0,0,0,0,0,0,0,0,0,0,0,0,0.08,0.08,0.0803,0.0803,0.0803,0.0795,0.0795,0.0794,0.0792,0.0793,0.0793,0.0793,0.0803,0.0803,0.0803,0,0,0,0,0,0,0,0,0,0,0,0,0,0.0795,0.08,0.0803,0.0803,0.0803,0.0795,0.0795,0.0794,0.0792,0.0793,0.0793,0.0793,0.0803,0.0803,0.0803,0.0795,0,0,0.0803,0.0803,0,0,0,0,0,0,0,0,0.0795,0.0795,0.0803,0.0803,0.0803,0.0798,0.0798,0.0796,0.0792,0.0794,0.0793,0.0794,0.0805,0.0804,0.0798,0.0795,0.0795,0.0803,0.0803,0.0803,0.0803,0,0,0,0,0,0,0,0.0796,0.0795,0.0797,0.0803,0.0803,0.0798,0.0798,0.0797,0.0795,0.0793,0.0794,0.0797,0.0804,0.0798,0.0798,0.0796,0.0803,0.0803,0.0803,0.0803,0.0824,0.0825,0,0,0,0,0,0,0.0802,0.0795,0.0797,0.0797,0.0803,0.0798,0.0798,0.0797,0.0795,0.0795,0.0797,0.0797,0.0798,0.0798,0.0799,0.0872,0.0803,0.0803,0.0803,0.0824,0.0824,0.0825,0,0,0,0,0,0,0.0802,0.0802,0.0798,0.0799,0.0798,0.0798,0.0797,0.0796,0.0809,0.0797,0.0798,0.0813,0.0798,0.0799,0.0831,0.0869,0.0803,0.0803,0.0823,0.0824,0.0825,0.0966,0,0,0,0,0,0,0.0802,0.0802,0.0802,0.0799,0.0798,0.0819,0.0797,0.0796,0.0811,0.0811,0.0811,0.0811,0.0798,0.0831,0.0831,0.0868,0.0803,0.0822,0.0823,0.0824,0.096,0.0971,0.0981,0,0,0,0,0,0.0802,0.0812,0.0802,0.0802,0.0798,0.082,0.082,0.0819,0.0811,0.0829,0.0834,0.0812,0.0836,0.0833,0.0832,0.087,0.0822,0.0823,0.0824,0.0956,0.0969,0.098,0,0,0,0,0,0,0.0813,0.0813,0.0802,0.081,0.0823,0.0822,0.0834,0.0831,0.0845,0.0846,0.0833,0.0835,0.0876,0.0844,0.084,0.0872,0.0819,0.082,0.0919,0.0931,0.0941,0.0952,0.0803,0,0,0,0,0,0.0813,0.082,0.0822,0.0831,0.0839,0.0837,0.0844,0.0845,0.0856,0.0862,0.0864,0.0859,0.0874,0.0883,0.0881,0.0907,0.0922,0.0921,0.0931,0.0941,0.0945,0.1034,0.1055,0.0829,0.0829,0.0829,0,0,0.0819,0.082,0.0823,0.0834,0.0839,0.0863,0.0843,0.0865,0.0888,0.0861,0.0898,0.0902,0.0888,0.0925,0.0937,0.0909,0.1011,0.0942,0.0951,0.095,0.1038,0.1061,0.1081,0.083,0.083,0.083,0,0,0.0844,0.0839,0.0855,0.0871,0.0887,0.089,0.0903,0.0914,0.0925,0.0955,0.095,0.0987,0.0983,0.1004,0.1007,0.1066,0.1066,0.105,0.1116,0.1204,0.1225,0.1244,0.1299,0.1321,0.1053,0.1053,0.1054,0,0.0851,0.0871,0.0867,0.0894,0.0918,0.0909,0.0946,0.0953,0.0975,0.1007,0.0981,0.1042,0.1024,0.1107,0.1113,0.1096,0.1133,0.1083,0.1225,0.1243,0.1259,0.1311,0.1334,0.106,0.1059,0.1059,0.1058,0,0.0899,0.0911,0.0931,0.0957,0.0983,0.1016,0.1031,0.1047,0.1053,0.1083,0.1163,0.1163,0.1211,0.12,0.1167,0.1276,0.1261,0.1239,0.1209,0.1292,0.1339,0.1361,0.107,0.1068,0.1066,0.1064,0,0,0.0928,0.0955,0.0966,0.0981,0.1023,0.1048,0.1088,0.1143,0.1198,0.1222,0.1328,0.1334,0.1367,0.1369,0.1363,0.1408,0.1541,0.1368,0.1369,0.1449,0.1733,0.1614,0.1625,0.1564,0.1568,0.1572,0.1723,0,0.097,0.1028,0.1036,0.1091,0.1125,0.1131,0.1176,0.1225,0.1275,0.1372,0.1413,0.1508,0.1428,0.1479,0.1521,0.1541,0.1602,0.1501,0.1615,0.1617,0.1526,0.1647,0.1546,0.1663,0.1744,0.1747,0.175,0,0.1019,0.1056,0.1127,0.1157,0.1175,0.1215,0.1303,0.1333,0.1455,0.1513,0.1628,0.168,0.1778,0.1696,0.1801,0.1748,0.1749,0.1746,0.1753,0.1605,0.1538,0.1588,0.1699,0.1785,0.1782,0.178,0.1777,0,0.1063,0.1107,0.1168,0.1189,0.1239,0.1275,0.1299,0.1399,0.146,0.164,0.1739,0.187,0.1944,0.1992,0.1931,0.1915,0.2017,0.201,0.1913,0.1904,0.1816,0.179,0.2106,0.2106,0.2106,0.2105,0.2105,0,0.1107,0.1153,0.1194,0.1237,0.1316,0.1323,0.1443,0.1478,0.1605,0.1717,0.1831,0.1934,0.2019,0.2065,0.203,0.201,0.2109,0.1952,0.1952,0.1855,0.1833,0.1919,0.1895,0.2111,0.211,0.2109,0.2108,0,0.1161,0.1179,0.1254,0.132,0.1343,0.1406,0.1507,0.1569,0.1685,0.1842,0.1913,0.2033,0.2097,0.212,0.218,0.2118,0.2118,0.2073,0.1923,0.19,0.1943,0.1924,0.209,0.2087,0.2085,0.2083,0.2082,0,0.1197,0.1242,0.1336,0.1366,0.1406,0.1499,0.1541,0.1627,0.1695,0.1864,0.1918,0.2048,0.2093,0.2123,0.2086,0.2081,0.2067,0.1942,0.1889,0.1967,0.195,0.1935,0.1919,0.1846,0.1843,0.184,0.1838,0,0.1255,0.1294,0.1329,0.14,0.1451,0.1543,0.1604,0.1662,0.1746,0.1851,0.1907,0.1957,0.204,0.1991,0.1966,0.1915,0.1947,0.1885,0.2071,0.1824,0.1738,0.172,0.1714,0.1813,0.1816,0.1818,0.1819,0.182,0.1263,0.1289,0.1293,0.1358,0.1426,0.1478,0.1525,0.1575,0.1621,0.1713,0.1803,0.1834,0.1881,0.1803,0.1744,0.171,0.1823,0.1756,0.1766,0.1778,0.1681,0.1592,0.1622,0.1623,0.1624,0.1625,0.1626,0,0.1169,0.1176,0.1228,0.1256,0.1298,0.1394,0.1462,0.1469,0.1465,0.1593,0.1658,0.1527,0.1542,0.1577,0.1536,0.1524,0.1511,0.1441,0.146,0.1485,0.1507,0.1396,0.1262,0.1261,0.1259,0.1258,0,0,0.1075,0.1034,0.105,0.1057,0.1139,0.118,0.1215,0.1238,0.1297,0.1276,0.1316,0.1504,0.1544,0.1394,0.1387,0.1344,0.1388,0.1274,0.1573,0.1621,0.1641,0.1699,0.1557,0,0,0,0,0]},{"header":{"parameterUnit":"m.s-1","parameterCategory":2,"la1":30.2991,"la2":30.254,"lo1":-89.0895,"lo2":-89.0444,"dy":0.0017,"dx":0.0017,"nx":28,"ny":28,"refTime":"2023-08-03T03:00:00:Z","depth":"2","parameterNumber":3,"parameterNumberName":"V-component_of_CURRENTS"},"data":[0,0,0,0,0,0,0,0,0,0,0,0,0,0,0,0,0,0,0,0,0,0,0,0,0,0,0,0,0,0,0,0,0,0,0,0,0,0,0,0,0,0,0,0,0,0,0,0,0,0,0,0,0,0,0,0,0,0,-0.0504,-0.0506,0,-0.0576,-0.0576,-0.0576,-0.0522,-0.052,-0.0519,-0.0518,-0.0501,-0.0502,-0.0503,0,0,0,0,0,0,0,0,0,0,0,0,0,-0.0398,-0.0398,-0.0504,-0.0506,-0.0508,-0.0576,-0.0576,-0.0576,-0.0522,-0.052,-0.0519,-0.0517,-0.0501,-0.0502,-0.0503,0,0,0,0,0,0,0,0,0,0,0,0,0,-0.0444,-0.0399,-0.0504,-0.0497,-0.0497,-0.0576,-0.0576,-0.0576,-0.0523,-0.052,-0.0518,-0.0516,-0.05,-0.0502,-0.0503,-0.0554,0,0,-0.0507,-0.0508,0,0,0,0,0,0,0,0,-0.0441,-0.0447,-0.0496,-0.0497,-0.0499,-0.0547,-0.0533,-0.0568,-0.0523,-0.0502,-0.0518,-0.0515,-0.0517,-0.0516,-0.0521,-0.0553,-0.0552,-0.0507,-0.0508,-0.0508,-0.0509,0,0,0,0,0,0,0,-0.0438,-0.0444,-0.0522,-0.0498,-0.05,-0.0518,-0.052,-0.0539,-0.0511,-0.0504,-0.0503,-0.0528,-0.0515,-0.052,-0.052,-0.0552,-0.0507,-0.0508,-0.0509,-0.051,-0.0595,-0.0597,0,0,0,0,0,0,-0.0449,-0.0441,-0.052,-0.0525,-0.0476,-0.0521,-0.0524,-0.0525,-0.0512,-0.0512,-0.053,-0.0525,-0.0519,-0.0519,-0.0519,-0.0511,-0.0508,-0.051,-0.051,-0.0594,-0.0596,-0.0597,0,0,0,0,0,0,-0.0446,-0.0454,-0.0517,-0.0494,-0.0505,-0.0526,-0.0528,-0.0528,-0.0508,-0.0535,-0.053,-0.0508,-0.0517,-0.0518,-0.0502,-0.0512,-0.051,-0.0511,-0.0592,-0.0595,-0.0597,-0.0538,0,0,0,0,0,0,-0.0442,-0.0452,-0.0459,-0.0494,-0.0507,-0.0532,-0.0531,-0.0531,-0.0534,-0.0527,-0.0516,-0.0514,-0.0516,-0.0499,-0.0503,-0.0514,-0.0512,-0.059,-0.0593,-0.0596,-0.0538,-0.0538,-0.0538,0,0,0,0,0,-0.0437,-0.0436,-0.0458,-0.0469,-0.0514,-0.0533,-0.0538,-0.0541,-0.0535,-0.0516,-0.0507,-0.0513,-0.0521,-0.05,-0.0504,-0.0516,-0.0589,-0.0592,-0.0596,-0.0538,-0.0538,-0.0538,0,0,0,0,0,0,-0.0386,-0.0433,-0.0457,-0.0469,-0.0496,-0.0527,-0.0525,-0.0534,-0.0517,-0.0502,-0.0511,-0.0508,-0.0505,-0.0528,-0.0505,-0.0558,-0.0566,-0.0571,-0.0522,-0.0522,-0.0522,-0.0503,-0.0514,0,0,0,0,0,-0.039,-0.0401,-0.0447,-0.046,-0.0467,-0.0497,-0.051,-0.051,-0.0511,-0.05,-0.0503,-0.0517,-0.0533,-0.0533,-0.0549,-0.0566,-0.0588,-0.0589,-0.0589,-0.0588,-0.0581,-0.0606,-0.0606,-0.0609,-0.0608,-0.0608,0,0,-0.0386,-0.041,-0.0423,-0.0453,-0.047,-0.0481,-0.0492,-0.0494,-0.05,-0.0505,-0.0494,-0.0507,-0.0537,-0.0548,-0.0554,-0.0559,-0.0605,-0.0593,-0.0591,-0.0584,-0.0609,-0.0608,-0.0607,-0.0611,-0.061,-0.061,0,0,-0.0383,-0.0389,-0.0404,-0.0411,-0.0442,-0.0457,-0.0453,-0.0474,-0.0467,-0.0474,-0.0485,-0.049,-0.0522,-0.0538,-0.0554,-0.0572,-0.06,-0.06,-0.058,-0.0604,-0.0603,-0.0602,-0.0642,-0.0645,-0.0603,-0.0603,-0.0603,0,-0.038,-0.0399,-0.041,-0.0416,-0.0424,-0.044,-0.0444,-0.0449,-0.0465,-0.0457,-0.0458,-0.0496,-0.0518,-0.0534,-0.0546,-0.0567,-0.0592,-0.0566,-0.0599,-0.0599,-0.0599,-0.0639,-0.0643,-0.0601,-0.0601,-0.0601,-0.0601,0,-0.0388,-0.04,-0.0394,-0.0413,-0.0413,-0.041,-0.0425,-0.0428,-0.0432,-0.043,-0.0431,-0.0459,-0.047,-0.0507,-0.053,-0.0556,-0.0579,-0.0587,-0.0585,-0.0594,-0.0638,-0.0643,-0.0597,-0.0598,-0.0599,-0.0599,0,0,-0.039,-0.0405,-0.0402,-0.0416,-0.0403,-0.0411,-0.0408,-0.0409,-0.0387,-0.0406,-0.0381,-0.0434,-0.0419,-0.0441,-0.0477,-0.052,-0.0556,-0.0557,-0.0559,-0.0571,-0.0622,-0.0651,-0.066,-0.0563,-0.0563,-0.0564,-0.0656,0,-0.0399,-0.0412,-0.0409,-0.0418,-0.0423,-0.0418,-0.0413,-0.0404,-0.0375,-0.0346,-0.0369,-0.034,-0.0401,-0.0389,-0.0442,-0.0508,-0.0565,-0.0531,-0.0634,-0.0637,-0.064,-0.0665,-0.0571,-0.0646,-0.0661,-0.0662,-0.0662,0,-0.0417,-0.0416,-0.0419,-0.043,-0.0427,-0.0427,-0.0395,-0.039,-0.0337,-0.0298,-0.0261,-0.0241,-0.0273,-0.0327,-0.0447,-0.0419,-0.0521,-0.0597,-0.0601,-0.0648,-0.0675,-0.0641,-0.0655,-0.0671,-0.067,-0.067,-0.0669,0,-0.043,-0.0438,-0.0439,-0.0433,-0.0428,-0.043,-0.0429,-0.037,-0.0324,-0.0235,-0.016,-0.0177,-0.0185,-0.0284,-0.0438,-0.0425,-0.0599,-0.0587,-0.0722,-0.0726,-0.0676,-0.0675,-0.0697,-0.0697,-0.0697,-0.0697,-0.0696,0,-0.045,-0.0454,-0.0446,-0.0443,-0.0427,-0.0428,-0.0368,-0.0356,-0.027,-0.0192,-0.0121,-0.0088,-0.0179,-0.0273,-0.0409,-0.059,-0.0572,-0.0723,-0.0749,-0.0659,-0.0655,-0.0697,-0.0696,-0.07,-0.0699,-0.0699,-0.0698,0,-0.0472,-0.0466,-0.047,-0.0454,-0.0435,-0.0427,-0.0341,-0.0301,-0.0201,-0.0099,-0.0056,-0.0032,-0.0135,-0.0262,-0.0458,-0.0561,-0.0719,-0.081,-0.071,-0.0723,-0.083,-0.0825,-0.0899,-0.0901,-0.0902,-0.0903,-0.0904,0,-0.0497,-0.0497,-0.0461,-0.0454,-0.0444,-0.0396,-0.0358,-0.027,-0.0207,-0.0087,-0.0065,-0.0093,-0.0103,-0.0364,-0.0538,-0.0732,-0.0818,-0.0823,-0.0777,-0.0831,-0.085,-0.0842,-0.0836,-0.0697,-0.0696,-0.0696,-0.0695,0,-0.0542,-0.0519,-0.0518,-0.0472,-0.0444,-0.0379,-0.0327,-0.0256,-0.0158,-0.0026,0.0032,0.0048,-0.0139,-0.0281,-0.0553,-0.0686,-0.0755,-0.0818,-0.0895,-0.0665,-0.065,-0.0665,-0.0663,-0.069,-0.069,-0.0691,-0.0691,-0.0691,-0.0587,-0.0579,-0.0564,-0.0512,-0.0469,-0.0403,-0.0312,-0.0231,-0.0093,0.0119,0.007,0.0177,-0.003,-0.0277,-0.0514,-0.0726,-0.0744,-0.0801,-0.0799,-0.0798,-0.0762,-0.0751,-0.0805,-0.0806,-0.0807,-0.0808,-0.0809,0,-0.0653,-0.0625,-0.0607,-0.054,-0.0467,-0.0425,-0.0309,-0.0173,0.0019,0.0176,0.0327,0.0235,0.0078,-0.0174,-0.0443,-0.0646,-0.0619,-0.0732,-0.064,-0.0645,-0.0649,-0.0602,-0.0604,-0.0604,-0.0604,-0.0604,0,0,-0.0701,-0.0682,-0.0634,-0.053,-0.0463,-0.0313,-0.0217,-0.0021,0.0135,0.0356,0.0483,0.0545,0.0192,0.0031,-0.0254,-0.0422,-0.0481,-0.0449,-0.0588,-0.0449,-0.045,-0.0664,-0.0595,0,0,0,0,0]}],[{"header":{"parameterUnit":"m.s-1","parameterCategory":2,"la1":30.2991,"la2":30.254,"lo1":-89.0895,"lo2":-89.0444,"dy":0.0017,"dx":0.0017,"nx":28,"ny":28,"refTime":"2023-08-03T03:00:00:Z","depth":"4","parameterNumber":2,"parameterNumberName":"U-component_of_CURRENTS"},"data":[0,0,0,0,0,0,0,0,0,0,0,0,0,0,0,0,0,0,0,0,0,0,0,0,0,0,0,0,0,0,0,0,0,0,0,0,0,0,0,0,0,0,0,0,0,0,0,0,0,0,0,0,0,0,0,0,0,0,0.0438,0.0438,0,0.0461,0.0461,0.0461,0.0481,0.0481,0.0482,0.0482,0.0537,0.0538,0.0539,0,0,0,0,0,0,0,0,0,0,0,0,0,0.0405,0.0405,0.0438,0.0438,0.0438,0.0461,0.0461,0.0461,0.0481,0.0481,0.0482,0.0482,0.0536,0.0538,0.0539,0,0,0,0,0,0,0,0,0,0,0,0,0,0.0422,0.0406,0.0438,0.0451,0.0453,0.0461,0.0461,0.0461,0.0481,0.0481,0.0482,0.0482,0.0536,0.0537,0.0539,0.0542,0,0,0.0545,0.0545,0,0,0,0,0,0,0,0,0.0421,0.0423,0.0449,0.045,0.0452,0.0469,0.0469,0.049,0.0481,0.047,0.0482,0.0482,0.0517,0.052,0.0522,0.0545,0.0547,0.0545,0.0546,0.0547,0.0547,0,0,0,0,0,0,0,0.042,0.0422,0.0446,0.0449,0.0451,0.0454,0.0457,0.0473,0.0491,0.0471,0.0472,0.0476,0.0518,0.0521,0.0524,0.0548,0.0545,0.0546,0.0548,0.0548,0.0612,0.0612,0,0,0,0,0,0,0.0418,0.0421,0.0446,0.0447,0.0438,0.0455,0.0458,0.0463,0.049,0.0495,0.0475,0.0476,0.0517,0.0522,0.0526,0.0584,0.0547,0.0548,0.0549,0.0611,0.0612,0.0613,0,0,0,0,0,0,0.0417,0.042,0.0445,0.0435,0.0438,0.0455,0.046,0.0463,0.0492,0.0493,0.0498,0.0505,0.0518,0.0524,0.0554,0.0584,0.0549,0.0551,0.0611,0.0612,0.0612,0.0665,0,0,0,0,0,0,0.0416,0.042,0.0429,0.0435,0.0439,0.0466,0.046,0.0463,0.0492,0.0495,0.052,0.0524,0.0519,0.0551,0.0556,0.0586,0.0552,0.061,0.0611,0.0612,0.0663,0.0668,0.0672,0,0,0,0,0,0.0415,0.0424,0.0429,0.0432,0.0449,0.0467,0.047,0.0481,0.0494,0.051,0.0522,0.0524,0.0561,0.0553,0.0558,0.059,0.0609,0.0611,0.0612,0.066,0.0667,0.0672,0,0,0,0,0,0,0.0411,0.0427,0.0433,0.0445,0.0463,0.0471,0.0488,0.05,0.0522,0.0535,0.0535,0.0539,0.0571,0.0573,0.0564,0.0609,0.0585,0.0588,0.062,0.0626,0.0631,0.0636,0.0554,0,0,0,0,0,0.0414,0.043,0.0443,0.0457,0.0469,0.0486,0.0498,0.0512,0.0529,0.0541,0.0555,0.0569,0.0576,0.0597,0.0598,0.0635,0.0643,0.0656,0.0661,0.0665,0.0671,0.0708,0.0717,0.0617,0.0617,0.0617,0,0,0.0414,0.0428,0.0435,0.0458,0.0475,0.0497,0.0495,0.0528,0.0552,0.0543,0.0585,0.0585,0.0585,0.0612,0.0629,0.0626,0.0698,0.0667,0.067,0.0675,0.071,0.072,0.0729,0.0618,0.0618,0.0618,0,0,0.0421,0.044,0.0455,0.0477,0.0511,0.0523,0.0541,0.0567,0.0587,0.0619,0.0614,0.0634,0.0655,0.0661,0.0664,0.0701,0.0712,0.0706,0.0752,0.0788,0.0796,0.0804,0.0832,0.0842,0.0721,0.0721,0.0721,0,0.042,0.0442,0.0463,0.0488,0.0512,0.054,0.0568,0.059,0.0623,0.0651,0.064,0.0678,0.0674,0.0714,0.0716,0.0714,0.0735,0.0733,0.0796,0.0804,0.0811,0.0837,0.0847,0.0724,0.0724,0.0723,0.0723,0,0.0437,0.0461,0.0478,0.0519,0.0549,0.0581,0.0615,0.0657,0.0684,0.0704,0.0752,0.0743,0.077,0.0769,0.0751,0.0806,0.0804,0.0789,0.0785,0.0824,0.0849,0.0859,0.0728,0.0727,0.0726,0.0725,0,0,0.0406,0.0474,0.0479,0.0514,0.0573,0.0602,0.0658,0.0714,0.0768,0.079,0.0844,0.0846,0.0856,0.0859,0.0851,0.0876,0.0932,0.0861,0.0861,0.0894,0.1018,0.0948,0.0952,0.0939,0.0941,0.0942,0.1017,0,0.0411,0.0458,0.0497,0.0557,0.0587,0.065,0.0702,0.0765,0.0812,0.0869,0.0884,0.0917,0.0888,0.0904,0.0928,0.0917,0.0961,0.0914,0.0968,0.097,0.0909,0.0961,0.0948,0.1024,0.1026,0.1028,0.1029,0,0.0402,0.0443,0.0491,0.0591,0.0614,0.0662,0.0774,0.0827,0.0916,0.095,0.1001,0.1008,0.104,0.1004,0.1046,0.1022,0.1033,0.1029,0.1031,0.0954,0.0918,0.0974,0.1046,0.1045,0.1044,0.1043,0.1041,0,0.0354,0.0441,0.0483,0.0513,0.0621,0.0679,0.0752,0.0856,0.0913,0.1008,0.1051,0.1094,0.1117,0.1131,0.1108,0.1094,0.1147,0.1127,0.1088,0.1083,0.11,0.1091,0.1189,0.1189,0.1189,0.1188,0.1188,0,0.0333,0.0367,0.0473,0.0494,0.0581,0.0674,0.0771,0.0854,0.096,0.1022,0.1091,0.1122,0.1153,0.1175,0.1151,0.1139,0.1191,0.1108,0.1103,0.112,0.1112,0.1108,0.1097,0.1191,0.1191,0.119,0.119,0,0.0262,0.0322,0.0374,0.0498,0.0551,0.0614,0.0772,0.0831,0.0957,0.1038,0.1066,0.116,0.1188,0.1211,0.123,0.1196,0.1182,0.1177,0.1197,0.119,0.1091,0.1082,0.1151,0.1149,0.1148,0.1147,0.1146,0,0.0233,0.0243,0.0355,0.0395,0.0456,0.0571,0.0641,0.0797,0.0858,0.1031,0.1046,0.1142,0.1181,0.1164,0.1187,0.1186,0.1171,0.1181,0.1133,0.1101,0.109,0.1084,0.1077,0.1143,0.1143,0.1142,0.1142,0,0.0169,0.0191,0.0233,0.0313,0.039,0.0476,0.0596,0.064,0.081,0.0929,0.1005,0.1052,0.1104,0.1112,0.114,0.1122,0.1171,0.1165,0.1168,0.1123,0.1092,0.1081,0.1077,0.1137,0.1138,0.1138,0.1139,0,0.0109,0.011,0.0157,0.0236,0.0308,0.0367,0.0451,0.0551,0.0646,0.0857,0.0861,0.0973,0.1068,0.108,0.1075,0.1081,0.107,0.104,0.1049,0.1056,0.0989,0.0934,0.094,0,0,0,0,0,0.0059,0.0053,0.0093,0.0166,0.0227,0.0293,0.0411,0.0496,0.0665,0.0692,0.0793,0.0833,0.09,0.0945,0.0933,0.1023,0.1055,0.1005,0.1018,0.1109,0.1115,0.1044,0,0,0,0,0,0,0.0024,0.0032,0.0058,0.0095,0.0138,0.0214,0.0286,0.0402,0.0441,0.0608,0.0634,0.0781,0.0831,0.0886,0.0911,0.0929,0.0923,0.1083,0.1082,0.1106,0.1111,0.1116,0.1045,0,0,0,0,0]},{"header":{"parameterUnit":"m.s-1","parameterCategory":2,"la1":30.2991,"la2":30.254,"lo1":-89.0895,"lo2":-89.0444,"dy":0.0017,"dx":0.0017,"nx":28,"ny":28,"refTime":"2023-08-03T03:00:00:Z","depth":"4","parameterNumber":3,"parameterNumberName":"V-component_of_CURRENTS"},"data":[0,0,0,0,0,0,0,0,0,0,0,0,0,0,0,0,0,0,0,0,0,0,0,0,0,0,0,0,0,0,0,0,0,0,0,0,0,0,0,0,0,0,0,0,0,0,0,0,0,0,0,0,0,0,0,0,0,0,-0.0148,-0.0148,0,-0.0155,-0.0155,-0.0155,-0.0226,-0.0228,-0.0229,-0.0231,-0.0302,-0.0302,-0.0302,0,0,0,0,0,0,0,0,0,0,0,0,0,-0.0189,-0.0188,-0.0148,-0.0148,-0.0147,-0.0155,-0.0155,-0.0156,-0.0226,-0.0228,-0.023,-0.0231,-0.0301,-0.0302,-0.0302,0,0,0,0,0,0,0,0,0,0,0,0,0,-0.0183,-0.0188,-0.0148,-0.0182,-0.0185,-0.0155,-0.0155,-0.0156,-0.0225,-0.0228,-0.023,-0.0232,-0.0301,-0.0302,-0.0302,-0.0258,0,0,-0.0304,-0.0305,0,0,0,0,0,0,0,0,-0.0183,-0.0181,-0.0177,-0.018,-0.0183,-0.0191,-0.0196,-0.0192,-0.0225,-0.0212,-0.0231,-0.0233,-0.0267,-0.0271,-0.0269,-0.0261,-0.0264,-0.0304,-0.0305,-0.0305,-0.0305,0,0,0,0,0,0,0,-0.0183,-0.0181,-0.0152,-0.0177,-0.018,-0.0195,-0.0197,-0.0195,-0.0229,-0.0213,-0.0218,-0.0215,-0.027,-0.0268,-0.0271,-0.0266,-0.0304,-0.0305,-0.0305,-0.0305,-0.033,-0.033,0,0,0,0,0,0,-0.0176,-0.0181,-0.0152,-0.0152,-0.0187,-0.0192,-0.0195,-0.0187,-0.0227,-0.0235,-0.0213,-0.0218,-0.0265,-0.027,-0.0274,-0.0302,-0.0305,-0.0305,-0.0306,-0.0329,-0.033,-0.033,0,0,0,0,0,0,-0.0177,-0.0173,-0.0152,-0.0166,-0.0165,-0.0189,-0.018,-0.0186,-0.0211,-0.0226,-0.0236,-0.0235,-0.0268,-0.0273,-0.0296,-0.0303,-0.0306,-0.0306,-0.0329,-0.033,-0.033,-0.0309,0,0,0,0,0,0,-0.0178,-0.0173,-0.017,-0.0165,-0.0163,-0.0136,-0.0178,-0.0184,-0.0203,-0.0211,-0.0247,-0.0255,-0.027,-0.0295,-0.0297,-0.0304,-0.0307,-0.0329,-0.0329,-0.033,-0.0309,-0.0308,-0.0308,0,0,0,0,0,-0.0179,-0.0157,-0.0169,-0.0166,-0.0156,-0.0135,-0.0135,-0.0162,-0.0202,-0.0198,-0.0239,-0.0256,-0.03,-0.0295,-0.0297,-0.0305,-0.0328,-0.0329,-0.033,-0.0309,-0.0309,-0.0308,0,0,0,0,0,0,-0.0172,-0.0162,-0.0176,-0.0153,-0.0147,-0.0147,-0.0146,-0.0168,-0.0195,-0.022,-0.0249,-0.0258,-0.0285,-0.0293,-0.0287,-0.0315,-0.032,-0.0321,-0.0304,-0.0303,-0.0303,-0.0297,-0.0307,0,0,0,0,0,-0.0166,-0.0155,-0.0145,-0.0131,-0.0127,-0.0142,-0.0143,-0.0162,-0.018,-0.0196,-0.0222,-0.0256,-0.028,-0.0293,-0.0309,-0.0312,-0.0336,-0.0322,-0.0322,-0.0321,-0.0319,-0.0372,-0.0376,-0.0332,-0.0332,-0.0332,0,0,-0.0162,-0.0154,-0.015,-0.013,-0.0134,-0.0108,-0.015,-0.0151,-0.0147,-0.0197,-0.0213,-0.0252,-0.0282,-0.0296,-0.0308,-0.0309,-0.0343,-0.0322,-0.0321,-0.0319,-0.0373,-0.0377,-0.0381,-0.0333,-0.0333,-0.0333,0,0,-0.0131,-0.0139,-0.0114,-0.0101,-0.0098,-0.0101,-0.0104,-0.0113,-0.0139,-0.0148,-0.0198,-0.0244,-0.026,-0.0291,-0.0308,-0.0309,-0.034,-0.032,-0.0308,-0.036,-0.0364,-0.0368,-0.0391,-0.0397,-0.0317,-0.0317,-0.0317,0,-0.013,-0.009,-0.0103,-0.0068,-0.006,-0.0096,-0.0067,-0.008,-0.0101,-0.0132,-0.0153,-0.0234,-0.0256,-0.0298,-0.0301,-0.0308,-0.0336,-0.0307,-0.0359,-0.0364,-0.0368,-0.0391,-0.0398,-0.0316,-0.0317,-0.0317,-0.0317,0,-0.007,-0.0042,-0.0026,0.0003,0.001,0.0028,0.0014,-0.0006,-0.0052,-0.0081,-0.0149,-0.0194,-0.0255,-0.0264,-0.0278,-0.0327,-0.0335,-0.0354,-0.036,-0.0371,-0.0394,-0.0402,-0.0315,-0.0315,-0.0316,-0.0316,0,0,-0.007,0.0004,0.0003,0.0024,0.0044,0.0049,0.0051,0.0031,-0.0009,-0.005,-0.0106,-0.0154,-0.0226,-0.0249,-0.0295,-0.0327,-0.0372,-0.0349,-0.0352,-0.0368,-0.0474,-0.0399,-0.04,-0.0409,-0.041,-0.0412,-0.0472,0,-0.0028,0.0051,0.0072,0.012,0.0151,0.0124,0.0125,0.0088,0.0031,-0.003,-0.0113,-0.0185,-0.0207,-0.0267,-0.0301,-0.037,-0.0394,-0.0353,-0.0463,-0.0465,-0.0396,-0.0407,-0.0416,-0.0478,-0.048,-0.0481,-0.0482,0,0.0012,0.0061,0.0121,0.0159,0.0164,0.0169,0.0116,0.0114,0.0027,-0.0027,-0.012,-0.0195,-0.0277,-0.0292,-0.0403,-0.0382,-0.042,-0.0454,-0.0458,-0.0401,-0.0405,-0.0469,-0.0497,-0.0496,-0.0495,-0.0494,-0.0493,0,-0.001,0.0081,0.012,0.0139,0.018,0.0158,0.015,0.0083,0.0059,-0.006,-0.0101,-0.0223,-0.0284,-0.0373,-0.0423,-0.0443,-0.0509,-0.0556,-0.0516,-0.0511,-0.057,-0.0566,-0.0614,-0.0614,-0.0614,-0.0614,-0.0614,0,0.0012,0.0035,0.0102,0.0115,0.0112,0.0137,0.009,0.0053,0.0006,-0.0011,-0.0125,-0.015,-0.0306,-0.0354,-0.0426,-0.0471,-0.0521,-0.051,-0.0524,-0.0557,-0.0551,-0.0575,-0.057,-0.0616,-0.0615,-0.0615,-0.0615,0,-0.0048,0.0017,0.0051,0.0095,0.0096,0.0068,0.0066,0.005,0.0004,-0.0021,-0.0057,-0.012,-0.0189,-0.029,-0.0408,-0.0451,-0.0522,-0.051,-0.0499,-0.0513,-0.05,-0.0493,-0.0541,-0.0539,-0.0537,-0.0536,-0.0534,0,-0.0074,-0.0056,-0.0003,0.0016,0.0021,0.0009,0.0012,0.0005,0.0018,0.003,0.004,-0.0024,-0.0071,-0.0175,-0.0287,-0.0431,-0.0429,-0.0481,-0.0533,-0.0485,-0.0495,-0.0491,-0.0486,-0.0532,-0.0531,-0.0531,-0.053,0,-0.0136,-0.0126,-0.009,-0.0026,-0.0017,0.0013,0.0034,0.0047,0.0087,0.0048,0.0104,0.0041,0.0001,-0.0125,-0.0206,-0.0304,-0.0482,-0.0464,-0.0471,-0.0521,-0.0474,-0.0485,-0.0482,-0.0524,-0.0525,-0.0526,-0.0526,0,-0.0201,-0.0182,-0.0094,-0.0058,-0.0011,0.0064,0.0047,0.0118,0.0135,0.0161,0.0194,0.0133,0.0078,-0.005,-0.0119,-0.022,-0.0282,-0.0347,-0.0361,-0.037,-0.0296,-0.0211,-0.0189,0,0,0,0,0,-0.0235,-0.0159,-0.0107,-0.0015,0.0038,0.0066,0.0124,0.013,0.016,0.0203,0.0203,0.0171,0.0065,0.0021,-0.0072,-0.011,-0.0305,-0.0223,-0.0389,-0.049,-0.0497,-0.0433,0,0,0,0,0,0,-0.0218,-0.0154,-0.0088,0.0036,0.0083,0.0163,0.0192,0.0199,0.023,0.0231,0.0175,0.0129,0.0018,0.0104,-0.0084,-0.0112,-0.0231,-0.0287,-0.0289,-0.0486,-0.0493,-0.0498,-0.0434,0,0,0,0,0]}]]